STARLINK-4507 (53403 NORAD) Tracking and Keplerian Element Data

This shows tracking and keplerian element data for the satellite.

Feedback or suggestion? Click here.




ElementValue
Catalog53403
NameSTARLINK-4507
Epoch Orbit1618
Epoch Day325.1670773
Epoch Year2022
RAAN131.4199
Inclination53.2171
Eccentricity0.0001837
Argument of Perigee51.3273
Mean Anonmoly308.7883
Mean Motion15.08840467
Decay Rate3.59E-06
L11 53403U 22097R 22325.16707730 .00000359 00000+0 40640-4 0 9994
L22 53403 53.2171 131.4199 0001837 51.3273 308.7883 15.08840467 16180



Live tracking and technical data element details for STARLINK-4507 (NORAD 53403). STARLINK-4507 can be tracked NOW for your location showing map with azimuth and elevation plus other details from your city location.







IsCatalogInMostPopularTable: catalog: 53403, numindb: 7
Update: records affected: 1



GetName: 53403 STARLINK-4507

Hit Count: updated at: Thu, 08 Dec 2022 09:17:21 GMT